User: anonymous   Login
Location: El Abasto
(10.3790°N, 67.5897°W)
Time: 14:02:28
(UTC+00:00)
Language:

Cosmos 1626 Rocket - Orbit

View from above orbital plane
View from above orbital plane
View from above satellite
View from above satellite

Ground track
Ground track

The orbit data is extracted from the following two-line orbital elements,

1 15495U 85009B   24198.75038377  .00000789  00000-0  89341-4 0  9993
2 15495  82.5243 283.5062 0021073  74.5986 285.7555 14.85025704112421
Epoch (UTC): 16 July 2024 18:00:33
Eccentricity: 0.0021073
inclination: 82.5243°
perigee height: 599 km
apogee height: 628 km
right ascension of ascending node: 283.5062°
argument of perigee: 74.5986°
revolutions per day: 14.85025704
mean anomaly at epoch: 285.7555°
orbit number at epoch: 11242

The dashed part of the orbit path shows where the satellite is in the earth's shadow,  

DLR